Location: Henham
(51.9333°N, 0.2500°E)
Time: 02:31:45
(UTC+00:00)

STARLINK-34 - Pass Details

Date: 23 October 2019
Orbit: 548 x 551 km, 53.0° (Epoch: 21 November)

Event Time Altitude Azimuth Distance (km) Brightness Sun altitude
Rises 19:06:26 0° 286° (WNW) 2,723 8.7 -21.8°
Reaches altitude 10° 19:08:40 10° 284° (WNW) 1,829 7.4 -22.1°
Maximum altitude 19:12:49 74° 200° (SSW) 576 3.6 -22.8°
Enters shadow 19:12:54 74° 188° (S) 577 3.6 -22.8°
